Location: Misciano
(43.5000°N, 11.9500°E)
Time: 02:17:55
(UTC+00:00)

Cosmos 2219 - Pass Details

Date: 13 August 2020
Orbit: 834 x 860 km, 71.1° (Epoch: 25 September)

Event Time Altitude Azimuth Distance (km) Brightness Sun altitude
Exits shadow 23:12:43 44° 45° (NE) 1,137 4.0 -32.2°
Drops below altitude 10° 23:16:35 10° 29° (NNE) 2,452 6.3 -32.2°
Sets 23:19:02 0° 28° (NNE) 3,391 7.2 -32.2°
